Regional Weather Roundup
Issued by NWS Northern Indiana

Home | Current Version | Previous Version | Graphics & Text | Print | Product List | Glossary On
Versions: 1 2 3 4 5 6 7 8 9 10 11 12 13 14 15 16 17 18 19 20 21 22 23 24 25 26 27 28 29 30 31 32 33 34 35 36 37 38 39 40 41 42 43 44 45 46 47 48 49 50
519
ASUS43 KIWX 081000
RWRIWX

KIWX WEATHER ROUNDUP
NATIONAL WEATHER SERVICE NORTHERN INDIANA
500 AM EST MON FEB 08 2016

NOTE: "FAIR" INDICATES FEW OR NO CLOUDS BELOW 12,000 FEET WITH NO
SIGNIFICANT WEATHER AND/OR OBSTRUCTIONS TO VISIBILITY.

* THESE STATIONS ARE NOT UNDER NWS QUALITY CONTROL. THEY ALSO MAY NOT
  REPORT WEATHER SUCH AS PRECIPITATION OR FOG.

INZ001>027-081100-
NORTHERN INDIANA

CITY           SKY/WX    TMP DP  RH WIND       PRES   REMARKS
SOUTH BEND     CLEAR     26  24  92 W5        29.64F WCI  20
GOSHEN         CLEAR     31  26  82 SW5       29.63F WCI  26
ANGOLA*        CLEAR     27  27 100 CALM      29.62F
FORT WAYNE     CLOUDY    31  29  92 SW7       29.65F WCI  24
PERU/GRISSOM   PTCLDY    28  26  91 SW6       29.64S WCI  22

$$
INZ028>050-081100-
CENTRAL INDIANA

CITY           SKY/WX    TMP DP  RH WIND       PRES   REMARKS
LAFAYETTE      CLOUDY    32  27  81 W3        29.67F
KOKOMO*          N/A     34  28  80 SW7       29.67S WCI  28
MUNCIE*        MOCLDY    36  30  79 SW6       29.67S
INDIANAPOLIS   FLURRIES  34  31  88 W9        29.69S WCI  27

$$
MIZ043>046-050>051-056>058-064>065-071>073-077>080-081100-
SOUTHWEST LOWER MICHIGAN

CITY           SKY/WX    TMP DP  RH WIND       PRES   REMARKS
BATTLE CREEK   PTCLDY    29  25  85 SW5       29.62F WCI  24
BENTON HARBOR  CLEAR     28  25  88 CALM      29.62F
COLDWATER*     PTCLDY    31  29  92 SW3       29.62S
HILLSDALE*     CLOUDY    31  29  94 CALM      29.61F
HOLLAND        CLEAR     30  26  85 CALM      29.61F
GRAND RAPIDS   CLEAR     27  25  92 S7        29.61S WCI  19
KALAMAZOO      CLEAR     27  23  85 SW7       29.62F WCI  19
STURGIS*       PTCLDY    29  27  94 CALM      29.62S
THREE RIVERS*  FAIR      28  27  97 S5        29.63S WCI  22

$$
OHZ001>008-015>018-024>025-081100-
NORTHWEST OHIO

CITY           SKY/WX    TMP DP  RH WIND       PRES   REMARKS
DEFIANCE       PTCLDY    33  29  85 CALM      29.64F
FINDLAY        CLOUDY    37  32  82 SW6       29.64F
TOLEDO EXPRESS CLOUDY    35  30  82 W6        29.63F WCI  30
TOLEDO METCALF CLOUDY    36  31  82 S3        29.64F
LIMA           CLOUDY    36  32  85 SW3       29.64F

$$
AND FOR LAKE MICHIGAN COASTAL AND OPEN LAKE BUOY OBSERVATIONS

STATION/POSITION TEMP    WIND        PRES    VSBY  WAVE
                 AIR SEA DIR/SP/G                  HT/PER
                 (F)     (DEG/KT/KT) (MB)    (MI)  (FT/S)
CALUMET HARBOR    31     220/  5/  7 1003.4F
MICHIGAN CITY     32     180/  9/ 10   N/A
BURNS HARBOR      34     220/  8/ 10 1004.7F
SAINT JOSEPH      34     190/  8/ 10 1004.4S

$$
&&




USA.gov is the U.S. government's official web portal to all federal, state and local government web resources and services.